This is the latest recevied weather packets stored in our database for station/object DL9GJ-4. If no packets are shown the sender has not sent any weather packets the latest 1 day(s).
| Time | Temp. | Humidity | Pressure | Rain* | Wind** | Luminosity | Snow |
|---|---|---|---|---|---|---|---|
| 1778060956 | 13.33° C | 41% | 1005 hPa | 0 mm | - | - | - |
| 1778060236 | 13.33° C | 51% | 1005 hPa | 0 mm | - | - | - |
| 1778059875 | 13.33° C | 52% | 1005 hPa | 0 mm | - | - | - |
| 1778058787 | 13.33° C | 54% | 1005 hPa | 0 mm | - | - | - |
| 1778056604 | 12.78° C | 64% | 1005 hPa | 0 mm | - | - | - |
| 1778055518 | 12.22° C | 64% | 1005 hPa | 0 mm | - | - | - |
| 1778052986 | 11.11° C | 63% | 1005 hPa | 0 mm | - | - | - |
| 1778052625 | 10.56° C | 63% | 1005 hPa | 0 mm | - | - | - |
| 1778052265 | 10.56° C | 62% | 1005 hPa | 0 mm | - | - | - |
| 1778051545 | 10.56° C | 61% | 1005 hPa | 0 mm | - | - | - |
| 1778050826 | 10° C | 61% | 1005 hPa | 0 mm | - | - | - |
| 1778049025 | 10° C | 61% | 1005 hPa | 0 mm | - | - | - |
| 1778046865 | 8.89° C | 61% | 1005 hPa | 0 mm | - | - | - |
| 1778046505 | 8.33° C | 61% | 1005 hPa | 0 mm | - | - | - |
| 1778045785 | 8.33° C | 60% | 1005 hPa | 0 mm | - | - | - |
| 1778044705 | 7.22° C | 59% | 1005 hPa | 0 mm | - | - | - |
| 1778043985 | 7.22° C | 59% | 1005 hPa | 0 mm | - | - | - |
| 1778042905 | 6.67° C | 58% | 1006 hPa | 0 mm | - | - | - |
| 1778041460 | 6.11° C | 56% | 1006 hPa | 0 mm | - | - | - |
| 1778041099 | 6.67° C | 56% | 1006 hPa | 0 mm | - | - | - |
| 1778040376 | 6.67° C | 55% | 1006 hPa | 0 mm | - | - | - |
| 1778040014 | 6.67° C | 56% | 1006 hPa | 0 mm | - | - | - |
| 1778039650 | 6.67° C | 55% | 1006 hPa | 0 mm | - | - | - |
| 1778039289 | 6.67° C | 55% | 1006 hPa | 0 mm | - | - | - |
| 1778038200 | 6.67° C | 54% | 1006 hPa | 0 mm | - | - | - |
* Rain latest hour (hover to see other rain measurements)
** Current wind speed in m/s (hover to see current wind gust speed)